| time (UTC) | temp C | wind direction | speed KPH | gust KPH | rain 1hr cm | rain 24hr cm | rain mn cm | humidity % | barometer mb |
| 20260831225718 | 35 | 211 | 0.0 | 0.0 | 0.00 | 0.00 | 0.00 | 51 | 1019.4 |
| 20260831225213 | 35 | 211 | 0.0 | 0.0 | 0.00 | 0.00 | 0.00 | 50 | 1019.5 |
| 20260831224703 | 33 | 211 | 0.0 | 0.0 | 0.00 | 0.00 | 0.00 | 57 | 1019.7 |
| 20260831224158 | 33 | 211 | 0.0 | 0.0 | 0.00 | 0.00 | 0.00 | 53 | 1019.5 |
| 20260831223654 | 34 | 211 | 0.0 | 0.0 | 0.00 | 0.00 | 0.00 | 52 | 1019.7 |
| 20260831223150 | 34 | 211 | 0.0 | 0.0 | 0.00 | 0.00 | 0.00 | 53 | 1019.6 |
| 20260831222646 | 33 | 211 | 0.0 | 0.0 | 0.00 | 0.00 | 0.00 | 52 | 1019.7 |
| 20260831222141 | 34 | 211 | 0.0 | 0.0 | 0.00 | 0.00 | 0.00 | 50 | 1019.9 |
| 20260831221637 | 34 | 211 | 0.0 | 1.6 | 0.00 | 0.00 | 0.00 | 50 | 1019.8 |
| 20260831221131 | 33 | 211 | 1.6 | 3.2 | 0.00 | 0.00 | 0.00 | 50 | 1019.7 |
| 20260831220627 | 34 | 211 | 4.8 | 4.8 | 0.00 | 0.00 | 0.00 | 48 | 1019.8 |
| 20260831220122 | 33 | 211 | 0.0 | 0.0 | 0.00 | 0.00 | 0.00 | 52 | 1019.8 |
| 20260831215617 | 33 | 211 | 0.0 | 0.0 | 0.00 | 0.00 | 0.00 | 50 | 1019.8 |
| 20260831215113 | 35 | 211 | 0.0 | 0.0 | 0.00 | 0.00 | 0.00 | 49 | 1020.2 |
| 20260831214610 | 34 | 211 | 4.8 | 4.8 | 0.00 | 0.00 | 0.00 | 50 | 1019.9 |
| 20260831214106 | 34 | 211 | 1.6 | 3.2 | 0.00 | 0.00 | 0.00 | 49 | 1020.0 |
| 20260831213603 | 35 | 211 | 3.2 | 4.8 | 0.00 | 0.00 | 0.00 | 50 | 1019.9 |
| 20260831213057 | 35 | 211 | 0.0 | 1.6 | 0.00 | 0.00 | 0.00 | 49 | 1019.9 |
| 20260831212554 | 34 | 211 | 0.0 | 1.6 | 0.00 | 0.00 | 0.00 | 52 | 1020.0 |
| 20260831212050 | 34 | 211 | 0.0 | 4.8 | 0.00 | 0.00 | 0.00 | 53 | 1020.1 |
| 20260831211548 | 34 | 211 | 1.6 | 4.8 | 0.00 | 0.00 | 0.00 | 50 | 1020.0 |
| 20260831211048 | 33 | 211 | 0.0 | 0.0 | 0.00 | 0.00 | 0.00 | 51 | 1020.0 |
| 20260831210538 | 33 | 211 | 0.0 | 3.2 | 0.00 | 0.00 | 0.00 | 52 | 1020.0 |
| 20260831210034 | 33 | 211 | 4.8 | 4.8 | 0.00 | 0.00 | 0.00 | 53 | 1020.2 |
| 20260831205534 | 33 | 211 | 3.2 | 6.4 | 0.00 | 0.00 | 0.00 | 51 | 1020.1 |
| 20260831205029 | 33 | 211 | 0.0 | 6.4 | 0.00 | 0.00 | 0.00 | 52 | 1020.3 |
| 20260831204524 | 34 | 211 | 3.2 | 3.2 | 0.00 | 0.00 | 0.00 | 51 | 1020.4 |
| 20260831204022 | 34 | 211 | 0.0 | 3.2 | 0.00 | 0.00 | 0.00 | 50 | 1020.5 |
| 20260831203517 | 33 | 206 | 0.0 | 3.2 | 0.00 | 0.00 | 0.00 | 53 | 1020.3 |
| 20260831203016 | 33 | 206 | 1.6 | 4.8 | 0.00 | 0.00 | 0.00 | 52 | 1020.3 |
| 20260831202510 | 33 | 211 | 3.2 | 6.4 | 0.00 | 0.00 | 0.00 | 54 | 1020.2 |
| 20260831202009 | 33 | 211 | 0.0 | 1.6 | 0.00 | 0.00 | 0.00 | 52 | 1020.4 |
| 20260831201508 | 33 | 211 | 1.6 | 4.8 | 0.00 | 0.00 | 0.00 | 54 | 1020.4 |
| 20260831201004 | 33 | 211 | 3.2 | 9.7 | 0.00 | 0.00 | 0.00 | 54 | 1020.6 |
| 20260831200500 | 32 | 211 | 3.2 | 4.8 | 0.00 | 0.00 | 0.00 | 57 | 1020.5 |
| 20260831195954 | 33 | 211 | 0.0 | 6.4 | 0.00 | 0.00 | 0.00 | 56 | 1020.6 |
| 20260831195450 | 33 | 211 | 4.8 | 6.4 | 0.00 | 0.00 | 0.00 | 54 | 1020.7 |
| 20260831194944 | 33 | 211 | 0.0 | 0.0 | 0.00 | 0.00 | 0.00 | 56 | 1021.0 |
| 20260831194440 | 33 | 211 | 0.0 | 1.6 | 0.00 | 0.00 | 0.00 | 56 | 1020.9 |
| 20260831193939 | 33 | 211 | 0.0 | 1.6 | 0.00 | 0.00 | 0.00 | 55 | 1020.8 |
| 20260831193435 | 33 | 211 | 1.6 | 1.6 | 0.00 | 0.00 | 0.00 | 55 | 1021.0 |
| 20260831192930 | 32 | 211 | 1.6 | 3.2 | 0.00 | 0.00 | 0.00 | 56 | 1020.9 |
| 20260831192430 | 32 | 211 | 1.6 | 3.2 | 0.00 | 0.00 | 0.00 | 57 | 1021.0 |
| 20260831191925 | 33 | 211 | 3.2 | 4.8 | 0.00 | 0.00 | 0.00 | 55 | 1020.8 |
| 20260831191421 | 33 | 211 | 1.6 | 3.2 | 0.00 | 0.00 | 0.00 | 56 | 1021.1 |
| 20260831190917 | 32 | 211 | 1.6 | 6.4 | 0.00 | 0.00 | 0.00 | 58 | 1020.8 |
| 20260831190412 | 32 | 211 | 0.0 | 3.2 | 0.00 | 0.00 | 0.00 | 59 | 1021.0 |
| 20260831185911 | 32 | 210 | 3.2 | 4.8 | 0.00 | 0.00 | 0.00 | 62 | 1021.2 |
| 20260831185408 | 32 | 211 | 1.6 | 1.6 | 0.00 | 0.00 | 0.00 | 59 | 1021.1 |
| 20260831184907 | 32 | 211 | 0.0 | 0.0 | 0.00 | 0.00 | 0.00 | 56 | 1021.3 |
| 20260831184402 | 32 | 211 | 1.6 | 3.2 | 0.00 | 0.00 | 0.00 | 58 | 1021.4 |
| 20260831183857 | 32 | 211 | 0.0 | 0.0 | 0.00 | 0.00 | 0.00 | 58 | 1021.5 |
| 20260831183356 | 32 | 211 | 1.6 | 1.6 | 0.00 | 0.00 | 0.00 | 57 | 1021.3 |
| 20260831182856 | 31 | 211 | 0.0 | 0.0 | 0.00 | 0.00 | 0.00 | 63 | 1021.3 |
| 20260831182351 | 31 | 211 | 0.0 | 3.2 | 0.00 | 0.00 | 0.00 | 61 | 1021.4 |
| 20260831181847 | 31 | 211 | 0.0 | 3.2 | 0.00 | 0.00 | 0.00 | 62 | 1021.5 |
| 20260831181342 | 32 | 211 | 0.0 | 4.8 | 0.00 | 0.00 | 0.00 | 61 | 1021.6 |
| 20260831180836 | 31 | 211 | 0.0 | 4.8 | 0.00 | 0.00 | 0.00 | 64 | 1021.5 |
| 20260831180331 | 32 | 211 | 1.6 | 4.8 | 0.00 | 0.00 | 0.00 | 64 | 1021.7 |
| 20260831175830 | 31 | 211 | 0.0 | 4.8 | 0.00 | 0.00 | 0.00 | 61 | 1021.7 |
| 20260831175327 | 31 | 211 | 0.0 | 4.8 | 0.00 | 0.00 | 0.00 | 64 | 1021.8 |
| 20260831174823 | 32 | 211 | 1.6 | 6.4 | 0.00 | 0.00 | 0.00 | 65 | 1021.7 |
| 20260831174318 | 32 | 211 | 1.6 | 3.2 | 0.00 | 0.00 | 0.00 | 64 | 1021.8 |
| 20260831173817 | 31 | 211 | 1.6 | 1.6 | 0.00 | 0.00 | 0.00 | 63 | 1021.9 |
| 20260831173311 | 32 | 211 | 0.0 | 4.8 | 0.00 | 0.00 | 0.00 | 62 | 1022.0 |
| 20260831172806 | 31 | 211 | 0.0 | 1.6 | 0.00 | 0.00 | 0.00 | 61 | 1021.8 |
| 20260831172305 | 31 | 211 | 0.0 | 3.2 | 0.00 | 0.00 | 0.00 | 62 | 1022.1 |
| 20260831171801 | 31 | 211 | 0.0 | 1.6 | 0.00 | 0.00 | 0.00 | 61 | 1021.9 |
| 20260831171259 | 31 | 211 | 0.0 | 3.2 | 0.00 | 0.00 | 0.00 | 63 | 1022.0 |
| 20260831170755 | 30 | 211 | 0.0 | 1.6 | 0.00 | 0.00 | 0.00 | 67 | 1022.1 |
| 20260831170251 | 30 | 210 | 0.0 | 3.2 | 0.00 | 0.00 | 0.00 | 70 | 1022.0 |
| 20260831165747 | 30 | 211 | 0.0 | 6.4 | 0.00 | 0.00 | 0.00 | 70 | 1022.2 |
| 20260831165244 | 30 | 206 | 1.6 | 3.2 | 0.00 | 0.00 | 0.00 | 73 | 1022.1 |
| 20260831164739 | 30 | 211 | 0.0 | 1.6 | 0.00 | 0.00 | 0.00 | 70 | 1022.2 |
| 20260831164235 | 30 | 211 | 3.2 | 4.8 | 0.00 | 0.00 | 0.00 | 71 | 1022.3 |
| 20260831163730 | 30 | 211 | 6.4 | 6.4 | 0.00 | 0.00 | 0.00 | 70 | 1022.4 |
| 20260831163226 | 30 | 211 | 0.0 | 6.4 | 0.00 | 0.00 | 0.00 | 70 | 1022.6 |
| 20260831162724 | 30 | 211 | 0.0 | 3.2 | 0.00 | 0.00 | 0.00 | 71 | 1022.6 |
| 20260831162218 | 30 | 211 | 3.2 | 4.8 | 0.00 | 0.00 | 0.00 | 70 | 1022.6 |
| 20260831161713 | 30 | 211 | 0.0 | 3.2 | 0.00 | 0.00 | 0.00 | 71 | 1022.8 |
| 20260831161210 | 30 | 211 | 1.6 | 3.2 | 0.00 | 0.00 | 0.00 | 72 | 1022.9 |
| 20260831160709 | 30 | 211 | 1.6 | 1.6 | 0.00 | 0.00 | 0.00 | 72 | 1022.6 |
| 20260831160204 | 30 | 211 | 0.0 | 3.2 | 0.00 | 0.00 | 0.00 | 73 | 1022.8 |
| 20260831155703 | 30 | 211 | 0.0 | 3.2 | 0.00 | 0.00 | 0.00 | 74 | 1022.8 |
| 20260831155159 | 30 | 211 | 0.0 | 3.2 | 0.00 | 0.00 | 0.00 | 75 | 1022.9 |
| 20260831154655 | 30 | 211 | 0.0 | 0.0 | 0.00 | 0.00 | 0.00 | 76 | 1023.1 |
| 20260831154150 | 29 | 211 | 0.0 | 0.0 | 0.00 | 0.00 | 0.00 | 75 | 1022.9 |
| 20260831153649 | 28 | 211 | 0.0 | 3.2 | 0.00 | 0.00 | 0.00 | 76 | 1022.7 |
| 20260831153146 | 28 | 210 | 0.0 | 4.8 | 0.00 | 0.00 | 0.00 | 78 | 1022.9 |
| 20260831152641 | 28 | 211 | 0.0 | 1.6 | 0.00 | 0.00 | 0.00 | 78 | 1022.9 |
| 20260831152137 | 28 | 211 | 0.0 | 0.0 | 0.00 | 0.00 | 0.00 | 78 | 1023.0 |
| 20260831151637 | 28 | 211 | 0.0 | 4.8 | 0.00 | 0.00 | 0.00 | 78 | 1022.9 |
| 20260831151131 | 28 | 211 | 0.0 | 0.0 | 0.00 | 0.00 | 0.00 | 78 | 1022.8 |
| 20260831150626 | 28 | 211 | 3.2 | 3.2 | 0.00 | 0.00 | 0.00 | 77 | 1022.9 |
| 20260831150121 | 28 | 211 | 0.0 | 0.0 | 0.00 | 0.00 | 0.00 | 79 | 1023.0 |
| 20260831145615 | 28 | 211 | 1.6 | 3.2 | 0.00 | 0.00 | 0.00 | 78 | 1022.9 |
| 20260831145112 | 27 | 211 | 0.0 | 0.0 | 0.00 | 0.00 | 0.00 | 80 | 1023.2 |
| 20260831144607 | 27 | 211 | 1.6 | 3.2 | 0.00 | 0.00 | 0.00 | 80 | 1023.0 |
| 20260831144102 | 27 | 211 | 0.0 | 0.0 | 0.00 | 0.00 | 0.00 | 81 | 1022.9 |
| 20260831143557 | 27 | 211 | 0.0 | 0.0 | 0.00 | 0.00 | 0.00 | 82 | 1022.9 |
| 20260831143052 | 27 | 211 | 0.0 | 0.0 | 0.00 | 0.00 | 0.00 | 82 | 1022.9 |
| 20260831142549 | 27 | 211 | 0.0 | 3.2 | 0.00 | 0.00 | 0.00 | 82 | 1022.8 |
| 20260831142044 | 26 | 204 | 0.0 | 0.0 | 0.00 | 0.00 | 0.00 | 83 | 1022.7 |
| 20260831141543 | 26 | 210 | 0.0 | 0.0 | 0.00 | 0.00 | 0.00 | 83 | 1022.7 |
| 20260831141038 | 27 | 210 | 0.0 | 0.0 | 0.00 | 0.00 | 0.00 | 85 | 1022.7 |
| 20260831140538 | 26 | 210 | 0.0 | 0.0 | 0.00 | 0.00 | 0.00 | 85 | 1022.6 |
| 20260831140038 | 26 | 210 | 0.0 | 0.0 | 0.00 | 0.00 | 0.00 | 85 | 1022.5 |
| 20260831135535 | 26 | 210 | 0.0 | 0.0 | 0.00 | 0.00 | 0.00 | 87 | 1022.7 |
| 20260831135031 | 25 | 210 | 0.0 | 1.6 | 0.00 | 0.00 | 0.00 | 87 | 1022.8 |
| 20260831134526 | 25 | 210 | 3.2 | 3.2 | 0.00 | 0.00 | 0.00 | 87 | 1022.8 |
| 20260831134021 | 25 | 210 | 0.0 | 0.0 | 0.00 | 0.00 | 0.00 | 89 | 1022.8 |
| 20260831133516 | 25 | 210 | 0.0 | 0.0 | 0.00 | 0.00 | 0.00 | 89 | 1022.8 |
| 20260831133011 | 25 | 210 | 0.0 | 3.2 | 0.00 | 0.00 | 0.00 | 89 | 1022.9 |
| 20260831132507 | 25 | 210 | 1.6 | 1.6 | 0.00 | 0.00 | 0.00 | 88 | 1022.9 |
| 20260831132006 | 25 | 210 | 0.0 | 0.0 | 0.00 | 0.00 | 0.00 | 88 | 1023.0 |
| 20260831131506 | 26 | 210 | 0.0 | 0.0 | 0.00 | 0.00 | 0.00 | 86 | 1023.0 |
| 20260831131002 | 26 | 210 | 0.0 | 0.0 | 0.00 | 0.00 | 0.00 | 86 | 1022.7 |
| 20260831130457 | 25 | 210 | 0.0 | 0.0 | 0.00 | 0.00 | 0.00 | 87 | 1022.8 |
| 20260831125956 | 25 | 210 | 0.0 | 0.0 | 0.00 | 0.00 | 0.00 | 86 | 1022.8 |
| 20260831125451 | 25 | 210 | 0.0 | 0.0 | 0.00 | 0.00 | 0.00 | 88 | 1023.0 |
| 20260831124947 | 25 | 210 | 0.0 | 0.0 | 0.00 | 0.00 | 0.00 | 88 | 1022.7 |
| 20260831124443 | 25 | 210 | 0.0 | 0.0 | 0.00 | 0.00 | 0.00 | 88 | 1022.6 |
| 20260831123938 | 24 | 210 | 0.0 | 0.0 | 0.00 | 0.00 | 0.00 | 91 | 1022.9 |
| 20260831123437 | 24 | 210 | 0.0 | 0.0 | 0.00 | 0.00 | 0.00 | 93 | 1022.7 |
| 20260831122932 | 23 | 210 | 0.0 | 0.0 | 0.00 | 0.00 | 0.00 | 97 | 1022.6 |
| 20260831122427 | 23 | 210 | 0.0 | 0.0 | 0.00 | 0.00 | 0.00 | 99 | 1022.5 |
| 20260831121922 | 23 | 210 | 0.0 | 0.0 | 0.00 | 0.00 | 0.00 | 99 | 1022.6 |
| 20260831121418 | 21 | 210 | 0.0 | 0.0 | 0.00 | 0.00 | 0.00 | 99 | 1022.4 |
| 20260831120914 | 22 | 210 | 0.0 | 0.0 | 0.00 | 0.00 | 0.00 | 99 | 1022.5 |
| 20260831120408 | 22 | 210 | 0.0 | 0.0 | 0.00 | 0.00 | 0.00 | 99 | 1022.5 |
| 20260831115908 | 21 | 210 | 0.0 | 0.0 | 0.00 | 0.00 | 0.00 | 99 | 1022.4 |
| 20260831115404 | 21 | 210 | 0.0 | 0.0 | 0.00 | 0.00 | 0.00 | 99 | 1022.4 |
| 20260831114903 | 21 | 210 | 0.0 | 0.0 | 0.00 | 0.00 | 0.00 | 99 | 1022.3 |
| 20260831114403 | 20 | 210 | 0.0 | 0.0 | 0.00 | 0.00 | 0.00 | 99 | 1022.3 |
| 20260831113859 | 20 | 210 | 0.0 | 0.0 | 0.00 | 0.00 | 0.00 | 99 | 1022.2 |
| 20260831113354 | 20 | 210 | 0.0 | 0.0 | 0.00 | 0.00 | 0.00 | 99 | 1022.0 |
| 20260831112853 | 20 | 210 | 0.0 | 0.0 | 0.00 | 0.00 | 0.00 | 99 | 1022.1 |
| 20260831112343 | 20 | 210 | 0.0 | 0.0 | 0.00 | 0.00 | 0.00 | 99 | 1022.1 |
| 20260831111838 | 20 | 210 | 0.0 | 0.0 | 0.00 | 0.00 | 0.00 | 99 | 1021.7 |
| 20260831111334 | 20 | 210 | 0.0 | 0.0 | 0.00 | 0.00 | 0.00 | 99 | 1022.0 |
| 20260831110829 | 20 | 210 | 0.0 | 0.0 | 0.00 | 0.00 | 0.00 | 99 | 1021.7 |
| 20260831110324 | 20 | 210 | 0.0 | 0.0 | 0.00 | 0.00 | 0.00 | 99 | 1021.7 |
| 20260831105822 | 20 | 210 | 0.0 | 0.0 | 0.00 | 0.00 | 0.00 | 99 | 1021.6 |
| 20260831105318 | 20 | 210 | 0.0 | 0.0 | 0.00 | 0.00 | 0.00 | 99 | 1021.8 |
| 20260831104813 | 20 | 210 | 0.0 | 0.0 | 0.00 | 0.00 | 0.00 | 99 | 1021.6 |
| 20260831104310 | 20 | 210 | 0.0 | 0.0 | 0.00 | 0.00 | 0.00 | 99 | 1021.4 |
| 20260831103809 | 20 | 210 | 0.0 | 0.0 | 0.00 | 0.00 | 0.00 | 99 | 1021.5 |
| 20260831103305 | 20 | 210 | 0.0 | 0.0 | 0.00 | 0.00 | 0.00 | 99 | 1021.4 |
| 20260831102759 | 20 | 210 | 0.0 | 0.0 | 0.00 | 0.00 | 0.00 | 99 | 1021.2 |
| 20260831102300 | 20 | 210 | 0.0 | 0.0 | 0.00 | 0.00 | 0.00 | 99 | 1021.4 |
| 20260831101755 | 20 | 210 | 0.0 | 0.0 | 0.00 | 0.00 | 0.00 | 99 | 1021.5 |
| 20260831101251 | 20 | 210 | 0.0 | 0.0 | 0.00 | 0.00 | 0.00 | 99 | 1021.3 |
| 20260831100747 | 20 | 210 | 0.0 | 0.0 | 0.00 | 0.00 | 0.00 | 99 | 1021.4 |
| 20260831100243 | 20 | 210 | 0.0 | 0.0 | 0.00 | 0.00 | 0.00 | 99 | 1021.5 |
| 20260831095742 | 20 | 210 | 0.0 | 0.0 | 0.00 | 0.00 | 0.00 | 99 | 1021.4 |
| 20260831095237 | 20 | 210 | 0.0 | 0.0 | 0.00 | 0.00 | 0.00 | 99 | 1021.5 |
| 20260831094736 | 20 | 210 | 0.0 | 0.0 | 0.00 | 0.00 | 0.00 | 99 | 1021.5 |
| 20260831094227 | 21 | 210 | 0.0 | 0.0 | 0.00 | 0.00 | 0.00 | 99 | 1021.5 |
| 20260831093723 | 21 | 210 | 0.0 | 0.0 | 0.00 | 0.00 | 0.00 | 99 | 1021.5 |
| 20260831093218 | 21 | 210 | 0.0 | 0.0 | 0.00 | 0.00 | 0.00 | 99 | 1021.3 |
| 20260831092715 | 21 | 210 | 0.0 | 0.0 | 0.00 | 0.00 | 0.00 | 99 | 1021.2 |
| 20260831092210 | 21 | 210 | 0.0 | 0.0 | 0.00 | 0.00 | 0.00 | 99 | 1021.3 |
| 20260831091709 | 21 | 210 | 0.0 | 0.0 | 0.00 | 0.00 | 0.00 | 99 | 1021.3 |
| 20260831091206 | 21 | 210 | 0.0 | 0.0 | 0.00 | 0.00 | 0.00 | 99 | 1021.4 |
| 20260831090705 | 21 | 210 | 0.0 | 0.0 | 0.00 | 0.00 | 0.00 | 99 | 1021.1 |
| 20260831090202 | 21 | 210 | 0.0 | 0.0 | 0.00 | 0.00 | 0.00 | 99 | 1021.3 |
| 20260831085657 | 21 | 202 | 0.0 | 0.0 | 0.00 | 0.00 | 0.00 | 99 | 1021.1 |
| 20260831085152 | 21 | 210 | 0.0 | 0.0 | 0.00 | 0.00 | 0.00 | 99 | 1021.1 |
| 20260831084648 | 21 | 210 | 0.0 | 0.0 | 0.00 | 0.00 | 0.00 | 99 | 1021.0 |
| 20260831084144 | 21 | 210 | 0.0 | 0.0 | 0.00 | 0.00 | 0.00 | 99 | 1021.0 |
| 20260831083639 | 21 | 210 | 0.0 | 0.0 | 0.00 | 0.00 | 0.00 | 99 | 1021.2 |
| 20260831083134 | 21 | 210 | 0.0 | 0.0 | 0.00 | 0.00 | 0.00 | 99 | 1020.9 |
| 20260831082633 | 21 | 210 | 0.0 | 0.0 | 0.00 | 0.00 | 0.00 | 99 | 1020.9 |
| 20260831082128 | 21 | 210 | 0.0 | 0.0 | 0.00 | 0.00 | 0.00 | 99 | 1020.8 |
| 20260831081624 | 21 | 210 | 0.0 | 0.0 | 0.00 | 0.00 | 0.00 | 99 | 1020.8 |
| 20260831081120 | 21 | 210 | 0.0 | 0.0 | 0.00 | 0.00 | 0.00 | 99 | 1020.8 |
| 20260831080615 | 21 | 210 | 0.0 | 0.0 | 0.00 | 0.00 | 0.00 | 99 | 1021.1 |
| 20260831080110 | 21 | 210 | 0.0 | 0.0 | 0.00 | 0.00 | 0.00 | 99 | 1021.0 |
| 20260831075606 | 21 | 210 | 0.0 | 0.0 | 0.00 | 0.00 | 0.00 | 99 | 1020.9 |
| 20260831075101 | 21 | 210 | 0.0 | 0.0 | 0.00 | 0.00 | 0.00 | 99 | 1020.9 |
| 20260831074600 | 21 | 210 | 0.0 | 0.0 | 0.00 | 0.00 | 0.00 | 99 | 1020.9 |
| 20260831074055 | 21 | 210 | 0.0 | 0.0 | 0.00 | 0.00 | 0.00 | 99 | 1020.6 |
| 20260831073550 | 21 | 210 | 0.0 | 0.0 | 0.00 | 0.00 | 0.00 | 99 | 1020.8 |
| 20260831073049 | 21 | 210 | 0.0 | 0.0 | 0.00 | 0.00 | 0.00 | 99 | 1020.9 |
| 20260831072544 | 21 | 210 | 0.0 | 0.0 | 0.00 | 0.00 | 0.00 | 99 | 1020.8 |
| 20260831072041 | 21 | 210 | 0.0 | 0.0 | 0.00 | 0.00 | 0.00 | 99 | 1020.9 |
| 20260831071540 | 21 | 210 | 0.0 | 0.0 | 0.00 | 0.00 | 0.00 | 99 | 1020.7 |
| 20260831071035 | 21 | 210 | 0.0 | 0.0 | 0.00 | 0.00 | 0.00 | 99 | 1020.9 |
| 20260831070534 | 21 | 210 | 0.0 | 0.0 | 0.00 | 0.00 | 0.00 | 99 | 1021.1 |
| 20260831070029 | 21 | 210 | 0.0 | 0.0 | 0.00 | 0.00 | 0.00 | 99 | 1021.0 |
| 20260831065527 | 21 | 210 | 0.0 | 0.0 | 0.00 | 0.00 | 0.00 | 99 | 1021.2 |
| 20260831065021 | 21 | 210 | 0.0 | 0.0 | 0.00 | 0.00 | 0.00 | 98 | 1020.9 |
| 20260831064517 | 22 | 210 | 0.0 | 0.0 | 0.00 | 0.00 | 0.00 | 98 | 1021.0 |
| 20260831064012 | 22 | 210 | 0.0 | 0.0 | 0.00 | 0.00 | 0.00 | 98 | 1021.1 |
| 20260831063508 | 22 | 210 | 0.0 | 0.0 | 0.00 | 0.00 | 0.00 | 97 | 1020.9 |
| 20260831063008 | 22 | 210 | 0.0 | 0.0 | 0.00 | 0.00 | 0.00 | 97 | 1021.0 |
| 20260831062503 | 22 | 210 | 0.0 | 0.0 | 0.00 | 0.00 | 0.00 | 97 | 1021.0 |
| 20260831062002 | 22 | 210 | 0.0 | 0.0 | 0.00 | 0.00 | 0.00 | 96 | 1021.0 |
| 20260831061500 | 22 | 203 | 0.0 | 0.0 | 0.00 | 0.00 | 0.00 | 96 | 1021.0 |
| 20260831060956 | 22 | 210 | 0.0 | 0.0 | 0.00 | 0.00 | 0.00 | 96 | 1020.9 |
| 20260831060451 | 22 | 210 | 0.0 | 0.0 | 0.00 | 0.00 | 0.00 | 95 | 1020.8 |
| 20260831055951 | 22 | 210 | 0.0 | 0.0 | 0.00 | 0.00 | 0.00 | 95 | 1021.0 |
| 20260831055446 | 22 | 210 | 0.0 | 0.0 | 0.00 | 0.00 | 0.00 | 94 | 1021.0 |
| 20260831054941 | 23 | 210 | 0.0 | 0.0 | 0.00 | 0.00 | 0.00 | 94 | 1020.9 |
| 20260831054436 | 23 | 210 | 0.0 | 0.0 | 0.00 | 0.00 | 0.00 | 93 | 1020.9 |
| 20260831053935 | 23 | 210 | 0.0 | 0.0 | 0.00 | 0.00 | 0.00 | 92 | 1021.2 |
| 20260831053433 | 23 | 210 | 0.0 | 0.0 | 0.00 | 0.00 | 0.00 | 91 | 1021.0 |
| 20260831052928 | 23 | 210 | 0.0 | 0.0 | 0.00 | 0.00 | 0.00 | 90 | 1021.1 |
| 20260831052428 | 24 | 210 | 0.0 | 0.0 | 0.00 | 0.00 | 0.00 | 90 | 1020.9 |
| 20260831051926 | 24 | 210 | 0.0 | 0.0 | 0.00 | 0.00 | 0.00 | 89 | 1020.9 |
| 20260831051425 | 24 | 210 | 1.6 | 3.2 | 0.00 | 0.00 | 0.00 | 88 | 1021.1 |
| 20260831050919 | 24 | 210 | 1.6 | 3.2 | 0.00 | 0.00 | 0.00 | 87 | 1021.1 |
| 20260831050414 | 24 | 210 | 1.6 | 3.2 | 0.00 | 0.00 | 0.00 | 87 | 1020.9 |
| 20260831045913 | 25 | 210 | 1.6 | 3.2 | 0.00 | 0.00 | 0.00 | 87 | 1021.0 |
| 20260831045412 | 24 | 210 | 1.6 | 3.2 | 0.00 | 0.00 | 0.00 | 87 | 1020.9 |
| 20260831044907 | 25 | 210 | 1.6 | 3.2 | 0.00 | 0.00 | 0.00 | 87 | 1020.8 |
| 20260831044402 | 25 | 210 | 1.6 | 3.2 | 0.00 | 0.00 | 0.00 | 87 | 1020.8 |
| 20260831043858 | 24 | 210 | 1.6 | 3.2 | 0.00 | 0.00 | 0.00 | 87 | 1021.0 |
| 20260831043357 | 25 | 210 | 1.6 | 3.2 | 0.00 | 0.00 | 0.00 | 87 | 1020.9 |
| 20260831042853 | 25 | 210 | 1.6 | 3.2 | 0.00 | 0.00 | 0.00 | 87 | 1021.0 |
| 20260831042352 | 25 | 210 | 0.0 | 0.0 | 0.00 | 0.00 | 0.00 | 87 | 1020.9 |
| 20260831041847 | 25 | 210 | 1.6 | 4.8 | 0.00 | 0.00 | 0.00 | 86 | 1021.1 |
| 20260831041347 | 25 | 210 | 0.0 | 1.6 | 0.00 | 0.00 | 0.00 | 86 | 1021.1 |
| 20260831040842 | 25 | 210 | 3.2 | 4.8 | 0.00 | 0.00 | 0.00 | 87 | 1021.1 |
| 20260831040336 | 25 | 210 | 1.6 | 3.2 | 0.00 | 0.00 | 0.00 | 86 | 1021.1 |
| 20260831035834 | 25 | 210 | 0.0 | 1.6 | 0.00 | 0.00 | 0.00 | 86 | 1020.9 |
| 20260831035333 | 25 | 210 | 1.6 | 3.2 | 0.00 | 0.00 | 0.00 | 87 | 1020.8 |
| 20260831034828 | 25 | 210 | 1.6 | 3.2 | 0.00 | 0.00 | 0.00 | 86 | 1021.0 |
| 20260831034324 | 25 | 210 | 1.6 | 1.6 | 0.00 | 0.00 | 0.00 | 87 | 1021.1 |
| 20260831033818 | 25 | 210 | 1.6 | 3.2 | 0.00 | 0.00 | 0.00 | 86 | 1021.0 |
| 20260831033313 | 25 | 210 | 1.6 | 1.6 | 0.00 | 0.00 | 0.00 | 86 | 1021.1 |
| 20260831032809 | 25 | 210 | 0.0 | 0.0 | 0.00 | 0.00 | 0.00 | 87 | 1021.2 |
| 20260831032306 | 25 | 210 | 0.0 | 0.0 | 0.00 | 0.00 | 0.00 | 86 | 1021.3 |
| 20260831031758 | 25 | 210 | 0.0 | 1.6 | 0.00 | 0.00 | 0.00 | 86 | 1021.0 |
| 20260831031257 | 25 | 210 | 0.0 | 0.0 | 0.00 | 0.00 | 0.00 | 86 | 1021.1 |
| 20260831030753 | 25 | 210 | 0.0 | 3.2 | 0.00 | 0.00 | 0.00 | 86 | 1021.1 |
| 20260831030250 | 25 | 210 | 0.0 | 0.0 | 0.00 | 0.00 | 0.00 | 86 | 1021.0 |
| 20260831025750 | 25 | 210 | 0.0 | 3.2 | 0.00 | 0.00 | 0.00 | 85 | 1021.1 |
| 20260831025244 | 25 | 210 | 0.0 | 0.0 | 0.00 | 0.00 | 0.00 | 86 | 1021.0 |
| 20260831024740 | 25 | 210 | 1.6 | 1.6 | 0.00 | 0.00 | 0.00 | 85 | 1021.0 |
| 20260831024239 | 26 | 210 | 0.0 | 0.0 | 0.00 | 0.00 | 0.00 | 84 | 1021.0 |
| 20260831023738 | 26 | 210 | 1.6 | 3.2 | 0.00 | 0.00 | 0.00 | 84 | 1021.0 |
| 20260831023237 | 26 | 210 | 0.0 | 0.0 | 0.00 | 0.00 | 0.00 | 84 | 1020.8 |
| 20260831022732 | 26 | 205 | 0.0 | 0.0 | 0.00 | 0.00 | 0.00 | 84 | 1020.8 |
| 20260831022227 | 26 | 210 | 0.0 | 1.6 | 0.00 | 0.00 | 0.00 | 83 | 1020.9 |
| 20260831021727 | 26 | 210 | 0.0 | 1.6 | 0.00 | 0.00 | 0.00 | 84 | 1020.9 |
| 20260831021226 | 26 | 210 | 1.6 | 3.2 | 0.00 | 0.00 | 0.00 | 84 | 1021.0 |
| 20260831020723 | 26 | 210 | 1.6 | 3.2 | 0.00 | 0.00 | 0.00 | 84 | 1021.1 |
| 20260831020222 | 25 | 210 | 0.0 | 0.0 | 0.00 | 0.00 | 0.00 | 86 | 1020.9 |
| 20260831015718 | 25 | 210 | 0.0 | 0.0 | 0.00 | 0.00 | 0.00 | 88 | 1020.9 |
| 20260831015213 | 25 | 210 | 0.0 | 0.0 | 0.00 | 0.00 | 0.00 | 91 | 1020.8 |
| 20260831014708 | 25 | 210 | 0.0 | 0.0 | 0.00 | 0.00 | 0.00 | 93 | 1020.8 |
| 20260831014203 | 24 | 210 | 0.0 | 0.0 | 0.00 | 0.00 | 0.00 | 93 | 1020.7 |
| 20260831013659 | 24 | 210 | 0.0 | 0.0 | 0.00 | 0.00 | 0.00 | 93 | 1020.6 |
| 20260831013158 | 24 | 210 | 0.0 | 0.0 | 0.00 | 0.00 | 0.00 | 93 | 1020.7 |
| 20260831012653 | 24 | 210 | 0.0 | 0.0 | 0.00 | 0.00 | 0.00 | 93 | 1020.6 |
| 20260831012149 | 25 | 210 | 0.0 | 0.0 | 0.00 | 0.00 | 0.00 | 93 | 1020.5 |
| 20260831011647 | 25 | 210 | 0.0 | 0.0 | 0.00 | 0.00 | 0.00 | 93 | 1020.4 |
| 20260831011138 | 25 | 210 | 0.0 | 0.0 | 0.00 | 0.00 | 0.00 | 92 | 1020.3 |
| 20260831010634 | 25 | 210 | 0.0 | 0.0 | 0.00 | 0.00 | 0.00 | 90 | 1020.3 |
| 20260831010129 | 25 | 210 | 0.0 | 0.0 | 0.00 | 0.00 | 0.00 | 90 | 1020.3 |
| 20260831005629 | 25 | 210 | 0.0 | 0.0 | 0.00 | 0.00 | 0.00 | 90 | 1020.2 |
| 20260831005124 | 25 | 210 | 0.0 | 0.0 | 0.00 | 0.00 | 0.00 | 89 | 1020.1 |
| 20260831004620 | 25 | 210 | 0.0 | 0.0 | 0.00 | 0.00 | 0.00 | 90 | 1020.1 |
| 20260831004115 | 26 | 210 | 0.0 | 0.0 | 0.00 | 0.00 | 0.00 | 90 | 1019.9 |
| 20260831003611 | 26 | 210 | 0.0 | 0.0 | 0.00 | 0.00 | 0.00 | 89 | 1019.8 |
| 20260831003107 | 26 | 210 | 0.0 | 0.0 | 0.00 | 0.00 | 0.00 | 89 | 1019.9 |
| 20260831002605 | 26 | 210 | 0.0 | 0.0 | 0.00 | 0.00 | 0.00 | 89 | 1019.9 |
| 20260831002101 | 27 | 210 | 0.0 | 0.0 | 0.00 | 0.00 | 0.00 | 87 | 1019.9 |
| 20260831001556 | 27 | 210 | 0.0 | 0.0 | 0.00 | 0.00 | 0.00 | 86 | 1019.7 |
| 20260831001052 | 27 | 210 | 0.0 | 0.0 | 0.00 | 0.00 | 0.00 | 84 | 1019.7 |
| 20260831000549 | 28 | 210 | 0.0 | 0.0 | 0.00 | 0.00 | 0.00 | 80 | 1019.7 |
| 20260831000048 | 28 | 210 | 0.0 | 0.0 | 0.00 | 0.00 | 0.00 | 79 | 1019.7 |
| 20260830235547 | 29 | 210 | 0.0 | 0.0 | 0.00 | 0.00 | 0.00 | 78 | 1019.7 |
| 20260830235042 | 30 | 210 | 0.0 | 0.0 | 0.00 | 0.00 | 0.00 | 76 | 1019.7 |
| 20260830234537 | 30 | 210 | 0.0 | 0.0 | 0.00 | 0.00 | 0.00 | 76 | 1019.8 |
| 20260830234032 | 30 | 210 | 0.0 | 0.0 | 0.00 | 0.00 | 0.00 | 77 | 1019.8 |
| 20260830233527 | 29 | 210 | 0.0 | 0.0 | 0.00 | 0.00 | 0.00 | 76 | 1019.8 |
| 20260830233023 | 29 | 210 | 0.0 | 3.2 | 0.00 | 0.00 | 0.00 | 76 | 1019.6 |
| 20260830232519 | 29 | 210 | 0.0 | 1.6 | 0.00 | 0.00 | 0.00 | 76 | 1019.8 |
| 20260830232015 | 30 | 210 | 0.0 | 0.0 | 0.00 | 0.00 | 0.00 | 76 | 1019.7 |
| 20260830231511 | 29 | 211 | 0.0 | 0.0 | 0.00 | 0.00 | 0.00 | 76 | 1019.7 |
| 20260830231010 | 30 | 210 | 0.0 | 0.0 | 0.00 | 0.00 | 0.00 | 75 | 1019.9 |
| 20260830230505 | 30 | 211 | 0.0 | 0.0 | 0.00 | 0.00 | 0.00 | 75 | 1019.9 |
| 20260830230005 | 30 | 211 | 0.0 | 0.0 | 0.00 | 0.00 | 0.00 | 73 | 1019.8 |